| time (UTC) | temp C | wind direction | speed KPH | gust KPH | rain 1hr cm | rain 24hr cm | rain mn cm | humidity % | barometer mb |
| 20260506202121 | 18 | 241 | 1.6 | 4.8 | 0.00 | 0.00 | 0.58 | 81 | 1005.7 |
| 20260506201121 | 18 | 205 | 3.2 | 8.0 | 0.00 | 0.00 | 0.58 | 81 | 1005.6 |
| 20260506200121 | 18 | 237 | 6.4 | 12.9 | 0.00 | 0.00 | 0.58 | 82 | 1005.8 |
| 20260506195121 | 18 | 236 | 4.8 | 11.3 | 0.00 | 0.00 | 0.58 | 82 | 1005.9 |
| 20260506194121 | 18 | 250 | 3.2 | 6.4 | 0.00 | 0.00 | 0.58 | 82 | 1006.0 |
| 20260506193121 | 17 | 182 | 3.2 | 11.3 | 0.00 | 0.00 | 0.58 | 83 | 1006.0 |
| 20260506192121 | 17 | 226 | 4.8 | 9.7 | 0.00 | 0.00 | 0.58 | 84 | 1006.1 |
| 20260506191142 | 17 | 225 | 4.8 | 8.0 | 0.00 | 0.00 | 0.58 | 84 | 1006.2 |
| 20260506190142 | 17 | 235 | 4.8 | 12.9 | 0.00 | 0.00 | 0.58 | 85 | 1006.4 |
| 20260506185121 | 17 | 245 | 4.8 | 12.9 | 0.00 | 0.00 | 0.58 | 86 | 1006.4 |
| 20260506184142 | 16 | 229 | 6.4 | 16.1 | 0.00 | 0.00 | 0.58 | 86 | 1006.4 |
| 20260506183121 | 16 | 230 | 3.2 | 8.0 | 0.00 | 0.00 | 0.58 | 87 | 1006.4 |
| 20260506182121 | 16 | 242 | 4.8 | 8.0 | 0.00 | 0.00 | 0.58 | 87 | 1006.6 |
| 20260506181121 | 16 | 271 | 4.8 | 11.3 | 0.00 | 0.00 | 0.58 | 87 | 1006.8 |
| 20260506180121 | 16 | 248 | 6.4 | 14.5 | 0.00 | 0.00 | 0.58 | 87 | 1006.7 |
| 20260506175142 | 16 | 231 | 6.4 | 17.7 | 0.00 | 0.00 | 0.58 | 87 | 1006.8 |
| 20260506174121 | 16 | 228 | 6.4 | 17.7 | 0.00 | 0.00 | 0.58 | 88 | 1006.7 |
| 20260506173121 | 16 | 255 | 4.8 | 14.5 | 0.00 | 0.00 | 0.58 | 87 | 1006.8 |
| 20260506172121 | 16 | 240 | 4.8 | 14.5 | 0.00 | 0.00 | 0.58 | 87 | 1006.8 |
| 20260506171121 | 16 | 212 | 6.4 | 27.4 | 0.00 | 0.00 | 0.58 | 87 | 1006.7 |
| 20260506170121 | 16 | 224 | 4.8 | 8.0 | 0.00 | 0.00 | 0.58 | 88 | 1007.0 |
| 20260506165142 | 16 | 230 | 4.8 | 11.3 | 0.00 | 0.00 | 0.58 | 89 | 1007.1 |
| 20260506164121 | 16 | 219 | 4.8 | 12.9 | 0.00 | 0.00 | 0.58 | 90 | 1007.1 |
| 20260506163142 | 16 | 218 | 3.2 | 8.0 | 0.00 | 0.00 | 0.58 | 90 | 1006.9 |
| 20260506162121 | 16 | 220 | 4.8 | 11.3 | 0.00 | 0.00 | 0.58 | 89 | 1007.1 |
| 20260506161121 | 16 | 324 | 1.6 | 14.5 | 0.00 | 0.00 | 0.56 | 90 | 1007.0 |
| 20260506160121 | 16 | 174 | 4.8 | 17.7 | 0.00 | 0.00 | 0.56 | 90 | 1007.0 |
| 20260506155121 | 15 | 236 | 4.8 | 12.9 | 0.00 | 0.00 | 0.53 | 90 | 1007.8 |
| 20260506154121 | 15 | 235 | 1.6 | 4.8 | 0.00 | 0.00 | 0.46 | 90 | 1007.9 |
| 20260506153121 | 15 | 245 | 3.2 | 8.0 | 0.00 | 0.00 | 0.43 | 90 | 1008.1 |
| 20260506152121 | 15 | 256 | 3.2 | 6.4 | 0.00 | 0.00 | 0.38 | 89 | 1008.3 |
| 20260506151121 | 15 | 231 | 1.6 | 8.0 | 0.00 | 0.00 | 0.38 | 89 | 1008.1 |
| 20260506150121 | 15 | 201 | 3.2 | 9.7 | 0.00 | 0.00 | 0.36 | 88 | 1008.0 |
| 20260506145121 | 16 | 213 | 3.2 | 12.9 | 0.00 | 0.00 | 0.28 | 87 | 1007.9 |
| 20260506144121 | 16 | 230 | 3.2 | 11.3 | 0.00 | 0.00 | 0.25 | 87 | 1008.0 |
| 20260506143121 | 16 | 228 | 3.2 | 6.4 | 0.00 | 0.00 | 0.20 | 87 | 1008.1 |
| 20260506142121 | 16 | 227 | 3.2 | 9.7 | 0.00 | 0.00 | 0.18 | 86 | 1007.9 |
| 20260506141121 | 16 | 249 | 1.6 | 4.8 | 0.00 | 0.00 | 0.13 | 85 | 1008.1 |
| 20260506140121 | 16 | 216 | 3.2 | 8.0 | 0.00 | 0.00 | 0.10 | 82 | 1008.0 |
| 20260506135121 | 17 | 241 | 4.8 | 20.9 | 0.00 | 0.00 | 0.05 | 79 | 1008.0 |
| 20260506134142 | 17 | 252 | 3.2 | 12.9 | 0.00 | 0.00 | 0.05 | 78 | 1007.9 |
| 20260506133121 | 17 | 246 | 4.8 | 16.1 | 0.00 | 0.00 | 0.03 | 77 | 1007.9 |
| 20260506132123 | 17 | 192 | 4.8 | 12.9 | 0.00 | 0.00 | 0.03 | 77 | 1007.9 |
| 20260506131121 | 17 | 211 | 4.8 | 14.5 | 0.00 | 0.00 | 0.03 | 76 | 1007.9 |
| 20260506130121 | 17 | 243 | 6.4 | 16.1 | 0.00 | 0.00 | 0.03 | 76 | 1008.0 |
| 20260506125122 | 17 | 232 | 6.4 | 19.3 | 0.00 | 0.00 | 0.03 | 75 | 1008.1 |
| 20260506124122 | 17 | 245 | 8.0 | 19.3 | 0.00 | 0.00 | 0.00 | 73 | 1008.1 |
| 20260506123121 | 18 | 251 | 8.0 | 25.7 | 0.00 | 0.00 | 0.00 | 72 | 1008.1 |
| 20260506122122 | 18 | 224 | 8.0 | 25.7 | 0.00 | 0.00 | 0.00 | 72 | 1007.9 |
| 20260506121122 | 18 | 256 | 6.4 | 17.7 | 0.00 | 0.00 | 0.00 | 72 | 1008.1 |
| 20260506120122 | 18 | 237 | 6.4 | 14.5 | 0.00 | 0.00 | 0.00 | 72 | 1007.8 |
| 20260506115122 | 18 | 260 | 3.2 | 9.7 | 0.00 | 0.00 | 0.00 | 72 | 1007.6 |
| 20260506114121 | 18 | 218 | 6.4 | 17.7 | 0.00 | 0.00 | 0.00 | 72 | 1007.6 |
| 20260506113143 | 18 | 206 | 6.4 | 17.7 | 0.00 | 0.00 | 0.00 | 72 | 1007.5 |
| 20260506112122 | 18 | 209 | 4.8 | 9.7 | 0.00 | 0.00 | 0.00 | 72 | 1007.6 |
| 20260506111122 | 18 | 219 | 4.8 | 14.5 | 0.00 | 0.00 | 0.00 | 72 | 1007.5 |
| 20260506110143 | 17 | 185 | 6.4 | 19.3 | 0.00 | 0.00 | 0.00 | 72 | 1007.5 |
| 20260506105122 | 17 | 297 | 4.8 | 8.0 | 0.00 | 0.00 | 0.00 | 72 | 1007.5 |
| 20260506104122 | 17 | 201 | 6.4 | 17.7 | 0.00 | 0.00 | 0.00 | 72 | 1007.4 |
| 20260506103122 | 17 | 231 | 4.8 | 11.3 | 0.00 | 0.00 | 0.00 | 72 | 1007.4 |
| 20260506102122 | 17 | 188 | 6.4 | 17.7 | 0.00 | 0.00 | 0.00 | 72 | 1007.4 |
| 20260506101122 | 18 | 329 | 4.8 | 8.0 | 0.00 | 0.00 | 0.00 | 71 | 1007.5 |
| 20260506100143 | 18 | 218 | 6.4 | 16.1 | 0.00 | 0.00 | 0.00 | 71 | 1007.3 |
| 20260506095122 | 18 | 197 | 6.4 | 14.5 | 0.00 | 0.00 | 0.00 | 70 | 1007.4 |
| 20260506094122 | 18 | 265 | 4.8 | 12.9 | 0.00 | 0.00 | 0.00 | 70 | 1007.4 |
| 20260506093143 | 18 | 215 | 4.8 | 11.3 | 0.00 | 0.00 | 0.00 | 69 | 1007.5 |
| 20260506092122 | 18 | 227 | 3.2 | 9.7 | 0.00 | 0.00 | 0.00 | 69 | 1007.5 |
| 20260506091122 | 18 | 230 | 4.8 | 16.1 | 0.00 | 0.00 | 0.00 | 69 | 1007.5 |
| 20260506090122 | 18 | 233 | 4.8 | 14.5 | 0.00 | 0.00 | 0.00 | 69 | 1007.5 |
| 20260506085122 | 18 | 14 | 3.2 | 9.7 | 0.00 | 0.00 | 0.00 | 69 | 1007.5 |
| 20260506084122 | 18 | 246 | 3.2 | 11.3 | 0.00 | 0.00 | 0.00 | 69 | 1007.6 |
| 20260506083122 | 18 | 160 | 4.8 | 12.9 | 0.00 | 0.00 | 0.00 | 69 | 1007.5 |
| 20260506082120 | 18 | 234 | 3.2 | 8.0 | 0.00 | 0.00 | 0.00 | 68 | 1007.6 |
| 20260506081120 | 18 | 242 | 3.2 | 9.7 | 0.00 | 0.00 | 0.00 | 68 | 1007.6 |
| 20260506080120 | 19 | 260 | 3.2 | 8.0 | 0.00 | 0.00 | 0.00 | 67 | 1007.7 |
| 20260506073121 | 19 | 192 | 3.2 | 11.3 | 0.00 | 0.00 | 0.00 | 66 | 1007.8 |
| 20260506072121 | 18 | 152 | 1.6 | 8.0 | 0.00 | 0.00 | 0.00 | 66 | 1007.9 |
| 20260506071120 | 19 | 211 | 4.8 | 11.3 | 0.00 | 0.00 | 0.00 | 65 | 1008.0 |
| 20260506070121 | 19 | 232 | 4.8 | 11.3 | 0.00 | 0.00 | 0.00 | 64 | 1008.0 |
| 20260506062121 | 19 | 229 | 1.6 | 6.4 | 0.00 | 0.00 | 0.00 | 61 | 1008.5 |
| 20260506061142 | 19 | 176 | 1.6 | 6.4 | 0.00 | 0.00 | 0.00 | 61 | 1008.5 |
| 20260506060121 | 19 | 230 | 1.6 | 4.8 | 0.00 | 0.00 | 0.00 | 60 | 1008.4 |
| 20260506051121 | 20 | 318 | 3.2 | 6.4 | 0.00 | 0.00 | 0.00 | 57 | 1008.8 |
| 20260506050121 | 20 | 270 | 3.2 | 6.4 | 0.00 | 0.00 | 0.00 | 56 | 1008.8 |
| 20260506045121 | 20 | 308 | 1.6 | 4.8 | 0.00 | 0.00 | 0.00 | 56 | 1008.8 |
| 20260506044142 | 20 | 331 | 1.6 | 4.8 | 0.00 | 0.00 | 0.00 | 56 | 1008.8 |
| 20260506043121 | 20 | 287 | 3.2 | 9.7 | 0.00 | 0.00 | 0.00 | 55 | 1008.9 |
| 20260506042142 | 20 | 274 | 3.2 | 8.0 | 0.00 | 0.00 | 0.00 | 55 | 1008.7 |
| 20260506041121 | 20 | 306 | 3.2 | 8.0 | 0.00 | 0.00 | 0.00 | 55 | 1008.8 |
| 20260506040121 | 19 | 277 | 3.2 | 6.4 | 0.00 | 0.00 | 0.00 | 56 | 1008.9 |
| 20260506035121 | 20 | 292 | 1.6 | 6.4 | 0.00 | 0.00 | 0.00 | 55 | 1008.8 |
| 20260506034121 | 20 | 315 | 1.6 | 4.8 | 0.00 | 0.00 | 0.00 | 55 | 1008.7 |
| 20260506033121 | 20 | 308 | 1.6 | 8.0 | 0.00 | 0.00 | 0.00 | 55 | 1008.7 |
| 20260506032121 | 20 | 336 | 1.6 | 6.4 | 0.00 | 0.00 | 0.00 | 54 | 1008.6 |
| 20260506031121 | 20 | 342 | 3.2 | 6.4 | 0.00 | 0.00 | 0.00 | 55 | 1008.6 |
| 20260506030121 | 20 | 281 | 3.2 | 9.7 | 0.00 | 0.00 | 0.00 | 53 | 1008.7 |
| 20260506025121 | 20 | 360 | 3.2 | 4.8 | 0.00 | 0.00 | 0.00 | 53 | 1008.6 |
| 20260506024121 | 20 | 339 | 1.6 | 4.8 | 0.00 | 0.00 | 0.00 | 52 | 1008.7 |
| 20260506023142 | 20 | 342 | 3.2 | 4.8 | 0.00 | 0.00 | 0.00 | 52 | 1008.7 |
| 20260506022121 | 21 | 317 | 1.6 | 4.8 | 0.00 | 0.00 | 0.00 | 51 | 1008.8 |
| 20260506021142 | 21 | 5 | 1.6 | 4.8 | 0.00 | 0.00 | 0.00 | 50 | 1008.7 |
| 20260506020121 | 21 | 292 | 3.2 | 6.4 | 0.00 | 0.00 | 0.00 | 49 | 1008.7 |
| 20260506015121 | 21 | 239 | 3.2 | 9.7 | 0.00 | 0.00 | 0.00 | 49 | 1008.5 |
| 20260506014142 | 21 | 24 | 1.6 | 6.4 | 0.00 | 0.00 | 0.00 | 48 | 1008.5 |
| 20260506013121 | 21 | 208 | 3.2 | 9.7 | 0.00 | 0.00 | 0.00 | 47 | 1008.5 |
| 20260506012121 | 22 | 325 | 3.2 | 6.4 | 0.00 | 0.00 | 0.00 | 46 | 1008.3 |
| 20260506011121 | 22 | 301 | 3.2 | 9.7 | 0.00 | 0.00 | 0.00 | 46 | 1008.2 |
| 20260506010142 | 22 | 306 | 3.2 | 9.7 | 0.00 | 0.00 | 0.00 | 45 | 1008.0 |
| 20260506005121 | 22 | 230 | 3.2 | 12.9 | 0.00 | 0.00 | 0.00 | 43 | 1008.0 |
| 20260506004121 | 23 | 261 | 4.8 | 11.3 | 0.00 | 0.00 | 0.00 | 43 | 1008.0 |
| 20260506003121 | 23 | 338 | 1.6 | 4.8 | 0.00 | 0.00 | 0.00 | 41 | 1007.8 |
| 20260506002121 | 23 | 335 | 1.6 | 6.4 | 0.00 | 0.00 | 0.00 | 41 | 1007.8 |
| 20260506001121 | 23 | 317 | 1.6 | 4.8 | 0.00 | 0.00 | 0.00 | 40 | 1007.7 |
| 20260506000142 | 23 | 293 | 3.2 | 8.0 | 0.00 | 0.00 | 0.00 | 40 | 1007.7 |
| 20260505235121 | 23 | 289 | 3.2 | 12.9 | 0.00 | 0.00 | 0.00 | 40 | 1007.6 |
| 20260505234142 | 23 | 266 | 4.8 | 9.7 | 0.00 | 0.00 | 0.00 | 39 | 1007.4 |
| 20260505233121 | 24 | 315 | 3.2 | 8.0 | 0.00 | 0.00 | 0.00 | 39 | 1007.3 |
| 20260505232121 | 24 | 278 | 4.8 | 14.5 | 0.00 | 0.00 | 0.00 | 38 | 1007.4 |
| 20260505231142 | 25 | 273 | 6.4 | 14.5 | 0.00 | 0.00 | 0.00 | 37 | 1007.5 |
| 20260505230121 | 25 | 266 | 6.4 | 12.9 | 0.00 | 0.00 | 0.00 | 37 | 1007.4 |
| 20260505225121 | 25 | 238 | 4.8 | 14.5 | 0.00 | 0.00 | 0.00 | 36 | 1007.3 |
| 20260505224121 | 25 | 175 | 6.4 | 16.1 | 0.00 | 0.00 | 0.00 | 37 | 1007.4 |
| 20260505223121 | 25 | 280 | 6.4 | 14.5 | 0.00 | 0.00 | 0.00 | 36 | 1007.4 |
| 20260505222142 | 26 | 252 | 6.4 | 12.9 | 0.00 | 0.00 | 0.00 | 36 | 1007.3 |
| 20260505221121 | 26 | 249 | 6.4 | 20.9 | 0.00 | 0.00 | 0.00 | 36 | 1007.4 |
| 20260505220122 | 26 | 249 | 6.4 | 16.1 | 0.00 | 0.00 | 0.00 | 36 | 1007.3 |
| 20260505215121 | 26 | 263 | 4.8 | 16.1 | 0.00 | 0.00 | 0.00 | 35 | 1007.3 |
| 20260505214121 | 26 | 253 | 4.8 | 12.9 | 0.00 | 0.00 | 0.00 | 35 | 1007.3 |
| 20260505213121 | 26 | 263 | 6.4 | 19.3 | 0.00 | 0.00 | 0.00 | 35 | 1007.2 |
| 20260505212121 | 26 | 252 | 6.4 | 12.9 | 0.00 | 0.00 | 0.00 | 34 | 1007.1 |
| 20260505211121 | 26 | 268 | 8.0 | 17.7 | 0.00 | 0.00 | 0.00 | 34 | 1007.2 |
| 20260505210121 | 26 | 247 | 6.4 | 16.1 | 0.00 | 0.00 | 0.00 | 34 | 1007.3 |
| 20260505205142 | 26 | 264 | 6.4 | 24.1 | 0.00 | 0.00 | 0.00 | 35 | 1007.2 |
| 20260505204121 | 26 | 264 | 6.4 | 20.9 | 0.00 | 0.00 | 0.00 | 34 | 1007.2 |
| 20260505203121 | 26 | 253 | 8.0 | 25.7 | 0.00 | 0.00 | 0.00 | 35 | 1007.2 |